GFSFLT2_925_spd_057.txt.gz
Wind_Speed
12 14 8 6 5 9 5 12 4 6 8 10 12 11 26 21 17 10 9 7 8 12 34 34 33 39 42 40 40 41 43 45
13 5 7 8 4 5 4 6 6 6 9 5 6 18 24 22 22 17 18 11 4 6 14 31 34 36 36 38 39 39 39 42
9 4 3 1 2 1 0 1 4 6 8 8 3 18 23 29 26 22 18 20 16 13 18 20 34 33 38 37 39 38 40 37
10 18 15 11 3 0 3 7 3 3 8 11 12 18 5 11 22 25 24 17 17 18 21 28 25 38 38 38 42 42 40 38
10 6 5 6 6 6 4 4 10 5 8 4 16 17 14 13 16 15 18 22 22 24 24 31 31 28 38 39 40 41 39 39
6 7 9 12 19 17 5 2 5 6 8 9 11 12 15 14 19 16 10 9 12 16 17 31 28 15 36 39 39 41 40 39
12 13 14 16 18 19 13 9 4 11 14 4 10 11 14 13 14 13 12 6 5 9 15 15 21 22 16 38 43 40 42 41
13 12 17 17 17 20 19 16 15 13 16 6 11 12 14 15 15 12 10 5 5 15 24 17 29 29 22 19 41 43 41 42
7 8 13 12 12 16 18 18 11 12 10 10 9 12 10 11 14 17 15 11 10 13 13 22 9 15 27 37 38 41 41 40
4 5 3 9 8 14 18 17 18 19 13 9 6 10 12 7 9 17 22 22 10 9 5 16 13 2 8 11 16 39 42 40
3 4 10 14 12 10 7 10 10 8 12 19 15 11 8 13 19 18 19 20 17 13 19 8 13 9 12 21 34 14 29 40
2 4 6 6 6 13 4 9 9 12 12 16 16 7 5 20 20 20 25 28 23 23 23 21 7 16 28 33 33 29 33 34
7 6 6 12 19 10 3 5 19 17 9 14 9 4 12 15 21 27 28 30 27 22 18 21 16 12 17 14 32 39 40 36
5 3 5 20 13 6 11 19 14 19 17 17 17 20 16 12 18 21 24 30 15 14 18 23 25 21 5 34 45 25 20 30
3 5 13 8 9 13 11 16 18 17 18 18 18 23 21 17 15 21 31 9 12 14 17 19 19 25 26 30 16 17 17 36
5 3 10 14 12 10 14 16 20 21 19 16 17 18 19 16 15 14 10 9 10 10 10 11 17 20 22 24 20 15 19 22
5 10 13 8 13 13 15 15 18 22 22 20 16 19 16 15 18 5 4 6 6 6 7 9 12 16 20 22 19 17 17 24
3 8 9 11 13 17 15 17 19 22 10 13 10 11 14 14 14 7 2 3 4 8 11 13 14 15 18 18 19 18 18 18
4 5 8 11 11 13 14 14 13 16 18 11 12 17 25 9 15 10 6 7 9 10 13 15 17 16 19 20 18 17 15 16

GFSFLT2_925_spd_063.txt.gz
Wind_Speed
1 2 2 3 3 5 8 2 3 2 5 3 13 12 10 14 14 16 17 17 19 18 29 32 36 37 40 39 38 43 45 40
4 5 7 5 3 2 3 6 4 2 4 3 13 15 15 7 16 18 14 16 15 17 28 33 37 39 40 43 44 48 46 43
2 6 5 7 6 4 3 3 6 4 1 5 6 8 10 9 11 14 10 7 10 15 20 29 32 34 34 34 36 36 41 44
4 6 11 16 4 4 4 5 3 3 2 7 7 8 11 13 7 6 5 5 6 7 13 9 15 24 29 30 33 34 39 42
4 6 8 7 7 5 2 2 2 2 3 7 8 10 13 15 17 14 11 12 11 11 11 11 7 18 23 30 31 31 34 35
4 3 3 3 5 5 5 4 5 2 6 8 11 9 12 13 15 15 13 13 8 8 4 9 11 8 23 28 28 30 30 32
3 2 2 1 4 5 4 2 1 3 4 7 8 8 8 10 14 17 16 16 14 11 9 13 17 18 18 22 31 33 30 30
5 5 4 3 4 5 7 5 6 6 1 6 6 8 13 12 13 14 13 13 12 13 18 17 19 19 22 23 27 34 37 35
4 6 7 5 6 5 2 1 3 4 4 8 9 13 9 10 12 12 12 13 11 9 12 23 19 16 16 12 21 27 34 35
1 5 2 4 7 8 1 7 8 6 9 9 8 10 4 5 9 14 14 13 12 16 20 23 28 21 21 14 6 15 27 31
3 2 5 2 5 5 4 2 7 6 8 10 18 12 7 6 11 11 12 17 18 18 24 29 26 22 24 21 13 6 15 20
2 3 4 0 5 7 2 5 6 10 7 7 7 5 6 12 19 21 24 22 23 25 26 27 24 26 24 20 14 16 15 14
3 3 3 3 9 5 5 2 8 9 11 10 9 6 16 20 22 25 29 30 29 24 23 25 27 21 22 16 15 15 13 9
2 1 6 4 4 1 4 6 11 16 16 16 15 14 17 19 17 26 26 31 33 27 26 24 28 23 20 19 20 19 15 14
7 5 3 4 5 6 4 9 13 16 16 14 17 16 13 19 16 19 26 28 30 31 29 27 26 29 17 24 26 22 20 19
3 4 4 2 2 3 6 8 10 14 14 13 18 16 15 16 10 14 20 25 28 28 32 30 25 25 32 27 25 23 20 16
4 9 7 7 6 7 7 7 9 15 14 13 14 15 14 13 9 11 15 24 29 29 28 31 29 29 32 29 23 24 19 11
6 7 5 5 5 6 9 8 9 13 15 14 14 13 16 13 16 15 15 24 29 32 31 31 29 31 28 27 22 19 19 14
5 5 7 7 6 10 8 10 10 10 16 14 20 17 20 15 16 20 19 16 21 26 29 28 26 24 23 22 21 20 20 17

GFSFLT2_925_spd_069.txt.gz
Wind_Speed
10 3 2 6 8 1 4 2 8 4 3 5 15 18 19 19 13 5 14 19 20 24 29 30 29 28 27 25 25 27 30 28
5 2 10 1 4 7 3 7 9 3 4 5 16 18 19 20 19 10 8 14 15 20 24 26 28 28 27 27 27 31 30 29
1 7 6 1 3 2 1 2 6 7 5 6 10 12 14 16 18 18 11 4 9 12 17 21 22 24 26 25 24 25 26 28
5 2 4 8 4 1 7 6 2 1 5 7 10 12 13 16 17 19 19 17 14 3 4 13 16 18 21 23 24 26 27 28
3 4 2 4 6 3 2 1 2 6 6 8 11 14 15 16 16 16 19 20 18 22 22 16 2 8 16 19 21 20 22 24
1 4 2 3 5 7 3 2 7 3 11 8 11 12 13 14 15 15 15 16 15 18 22 22 20 17 9 8 15 18 20 23
7 5 2 3 1 4 5 4 2 10 8 6 8 9 9 10 12 15 15 16 16 14 19 22 25 22 18 14 9 15 21 23
3 4 3 3 4 2 1 1 3 5 6 3 5 4 7 10 11 13 15 15 14 17 20 21 23 24 20 19 19 15 17 25
4 3 2 5 1 2 4 5 2 5 5 6 4 9 10 10 8 11 14 16 16 16 21 22 24 26 22 22 21 18 16 19
4 4 5 5 3 2 4 7 5 4 6 7 8 12 14 5 5 11 15 16 17 21 23 24 27 28 27 24 22 21 17 10
4 5 2 3 1 1 1 4 5 4 8 8 12 11 1 5 11 15 18 20 20 21 23 25 24 25 30 27 23 20 18 14
3 3 6 5 5 1 2 4 3 3 6 10 11 5 2 9 24 26 25 25 25 25 23 22 23 24 25 25 24 21 21 19
3 3 1 6 4 4 3 4 1 2 4 6 6 7 16 22 21 22 23 26 28 27 23 21 21 23 25 27 24 25 22 19
2 2 5 10 6 5 4 4 3 1 3 5 9 13 16 18 18 21 24 24 23 25 28 24 21 21 23 25 32 28 30 23
6 3 2 8 2 4 3 3 2 1 4 7 10 13 16 16 20 23 24 24 23 24 24 28 23 21 24 25 25 31 29 26
1 6 10 9 7 4 6 4 5 4 5 7 9 13 17 14 19 23 25 25 26 26 26 27 27 26 27 27 26 26 30 28
5 7 4 9 11 8 10 8 8 9 10 9 9 12 14 14 19 23 22 22 24 25 27 29 28 31 30 31 29 28 27 28
5 7 3 4 8 11 10 11 10 8 8 10 12 11 15 16 16 18 21 23 24 25 26 28 31 32 33 29 28 29 29 27
3 7 4 6 8 10 9 9 9 8 9 9 11 13 15 19 21 22 22 23 24 26 25 26 29 30 29 30 27 27 29 25

GFSFLT2_925_spd_072.txt.gz
Wind_Speed
1 2 8 19 18 13 7 4 12 12 12 13 7 11 14 16 11 3 15 16 18 22 24 26 27 27 25 22 20 21 23 22
2 5 2 6 13 10 9 12 14 12 17 9 7 11 14 17 18 13 4 10 13 18 21 23 25 26 25 24 22 21 20 22
8 3 5 9 10 10 12 8 13 9 7 6 7 10 12 14 15 17 20 17 14 9 15 15 19 22 23 24 23 21 20 21
7 5 2 3 4 9 11 13 8 7 7 7 9 12 11 13 14 16 17 17 18 25 29 20 11 17 20 21 23 23 22 20
10 8 5 3 2 4 8 8 17 11 8 9 10 12 13 14 14 14 16 18 18 24 24 24 22 26 7 15 17 18 17 19
2 7 7 8 4 1 8 11 8 6 19 13 11 12 12 14 13 14 15 16 15 15 20 23 24 21 23 18 8 11 15 16
6 6 4 3 3 2 1 5 7 17 16 13 11 11 11 11 12 13 15 16 15 14 16 17 20 22 18 18 16 11 12 15
3 1 1 5 3 2 2 3 6 12 14 10 8 8 8 9 10 12 13 12 14 17 19 19 18 18 18 20 18 19 12 12
9 3 3 8 10 5 6 2 1 10 13 5 7 5 6 6 6 10 12 13 14 12 16 19 20 19 20 22 18 17 19 15
3 6 8 7 4 2 4 6 6 10 8 5 2 3 3 8 8 10 12 13 14 17 17 18 18 17 18 18 18 19 22 22
4 10 4 7 6 6 11 9 3 4 4 3 4 5 10 7 9 11 13 14 15 17 18 18 18 18 19 21 18 18 20 22
4 4 5 10 6 3 3 6 7 3 3 4 6 6 10 10 14 15 15 17 18 18 17 16 17 18 19 18 17 18 22 21
7 5 1 7 6 4 7 5 8 3 2 2 3 5 10 13 13 14 15 16 18 20 18 16 16 18 18 18 17 18 20 22
5 4 6 11 6 4 7 6 5 3 1 1 3 4 7 10 12 15 16 17 17 18 19 20 19 18 19 19 19 21 23 24
4 1 2 12 3 5 3 4 4 3 2 1 3 5 8 9 11 13 15 17 18 18 20 20 20 20 21 21 22 23 24 25
2 5 8 11 7 5 5 5 5 4 2 2 4 6 8 8 10 12 13 16 17 18 20 20 19 21 24 25 24 25 27 26
7 9 4 11 12 9 9 7 6 5 4 4 5 6 7 8 11 14 14 15 16 17 19 23 24 23 22 24 27 28 28 27
6 7 10 3 14 14 11 11 8 6 6 6 6 6 8 10 13 15 18 19 19 19 20 24 25 25 25 24 25 28 28 27
5 6 7 6 8 14 13 11 11 10 8 7 7 8 9 11 14 15 17 19 21 19 20 25 25 26 27 26 24 25 26 28

GFSFLT2_925_spd_075.txt.gz
Wind_Speed
8 16 17 18 19 24 14 14 14 13 15 12 13 12 12 11 10 15 17 17 22 23 27 28 24 29 26 25 22 21 21 20
11 8 12 12 14 20 11 17 15 16 19 11 12 10 11 12 14 18 18 14 15 11 10 29 27 27 27 25 23 21 20 20
8 14 15 12 12 16 13 16 13 10 9 12 12 9 11 11 12 16 16 15 16 20 18 24 22 22 28 27 24 22 20 19
17 4 4 14 15 17 12 19 15 7 8 12 13 13 14 11 11 14 15 15 14 21 24 23 25 25 11 23 26 24 22 20
6 6 10 12 10 11 15 18 14 16 10 13 16 14 15 13 12 13 15 17 15 23 26 26 22 21 25 16 12 19 24 22
6 3 16 19 9 11 14 11 12 8 23 16 17 16 14 13 13 13 14 14 14 16 21 21 20 22 22 22 21 21 11 13
3 8 9 12 14 9 16 17 13 20 19 17 15 16 18 14 13 13 14 15 14 14 15 18 17 22 24 18 19 19 18 12
10 5 5 5 6 6 8 5 8 20 19 16 13 14 12 12 13 13 13 11 12 14 16 17 18 16 20 19 19 18 18 17
14 13 4 10 12 10 8 6 11 14 18 11 12 10 8 10 11 10 10 10 9 11 13 13 12 12 12 14 17 17 16 16
12 9 13 4 1 4 6 5 8 13 13 14 11 8 7 11 8 8 8 8 8 11 10 10 9 10 11 12 11 13 14 15
11 9 5 8 7 7 12 10 2 12 10 10 9 10 10 8 7 7 7 7 9 10 11 10 10 10 10 12 9 10 12 14
7 9 14 13 11 4 2 10 10 7 7 6 7 10 11 5 5 7 8 9 9 10 10 9 10 11 12 11 12 12 14 14
8 7 1 10 7 5 9 6 10 7 6 3 2 9 6 5 5 6 7 9 11 11 11 11 12 13 12 12 12 13 15 16
8 10 10 12 6 6 10 10 10 7 6 5 5 4 4 5 5 7 7 8 9 11 13 14 14 14 14 14 14 16 18 19
4 3 5 5 3 8 6 8 5 6 7 4 4 4 3 3 5 6 7 8 9 9 11 12 14 15 17 17 18 19 21 22
2 7 6 9 7 6 4 4 5 5 6 5 3 2 1 3 5 6 8 9 11 13 12 12 14 16 18 20 20 21 23 25
10 9 4 10 10 8 7 6 6 6 4 3 2 2 1 1 2 6 8 11 13 14 14 17 16 18 19 19 21 24 25 26
7 6 9 10 15 12 11 10 9 8 7 6 4 3 2 2 5 5 7 8 11 13 16 17 18 20 20 19 20 23 26 26
11 12 6 5 3 12 12 11 11 9 8 5 6 6 5 2 5 5 8 9 11 11 15 17 19 20 20 21 21 23 25 26